FW7499 Weather Reports


Display with metric or nautical units.
time (UTC)temp
F
wind
direction
speed
MPH
gust
MPH
rain 1hr
in
rain 24hr
in
rain mn
in
humidity
%
barometer
mb
20260903011508 88 146 0.0 4.0 0.00 0.00 0.00 57 1009.8
20260903011008 88 201 1.0 4.0 0.00 0.00 0.00 55 1009.7
20260903010507 88 126 0.0 3.0 0.00 0.00 0.00 56 1009.7
20260903010006 89 179 1.0 3.0 0.00 0.00 0.00 55 1009.8
20260903005508 89 188 1.0 3.0 0.00 0.00 0.00 56 1009.8
20260903005005 89 226 1.0 3.0 0.00 0.00 0.00 55 1009.8
20260903004518 89 217 0.0 2.0 0.00 0.00 0.00 55 1009.8
20260903004010 89 198 0.0 2.0 0.00 0.00 0.00 57 1009.8
20260903003505 89 217 0.0 2.0 0.00 0.00 0.00 55 1009.8
20260903003003 90 144 0.0 4.0 0.00 0.00 0.00 54 1009.8
20260903002508 91 180 0.0 4.0 0.00 0.00 0.00 53 1009.8
20260903002005 91 219 1.0 4.0 0.00 0.00 0.00 53 1009.8
20260903001510 91 123 1.0 4.0 0.00 0.00 0.00 54 1009.8
20260903001003 91 152 0.0 4.0 0.00 0.00 0.00 54 1009.8
20260903000507 92 225 1.0 4.0 0.00 0.00 0.00 53 1009.8
20260903000008 92 222 0.0 4.0 0.00 0.00 0.00 52 1009.8
20260902235504 92 153 1.0 4.0 0.00 0.00 0.00 1009.8
20260902235009 92 204 0.0 3.0 0.00 0.00 0.00 51 1009.9
20260902234515 93 86 0.0 2.0 0.00 0.00 0.00 51 1009.9
20260902234002 93 164 0.0 5.0 0.00 0.00 0.00 50 1009.9
20260902233503 93 169 1.0 5.0 0.00 0.00 0.00 50 1009.9
20260902233012 93 304 0.0 4.0 0.00 0.00 0.00 54 1009.9
20260902232514 93 296 0.0 4.0 0.00 0.00 0.00 53 1009.9
20260902232010 94 144 0.0 5.0 0.00 0.00 0.00 49 1009.9
20260902231512 94 324 0.0 5.0 0.00 0.00 0.00 48 1009.9
20260902231011 94 256 1.0 5.0 0.00 0.00 0.00 48 1010.0
20260902230502 95 223 1.0 5.0 0.00 0.00 0.00 48 1009.9
20260902230009 95 204 1.0 5.0 0.00 0.00 0.00 47 1010.0
20260902225507 95 300 2.0 7.0 0.00 0.00 0.00 47 1010.0
20260902225008 95 308 2.0 7.0 0.00 0.00 0.00 48 1010.0
20260902224514 95 132 2.0 9.0 0.00 0.00 0.00 46 1010.0
20260902224008 95 240 1.0 9.0 0.00 0.00 0.00 47 1010.0
20260902223505 95 331 2.0 9.0 0.00 0.00 0.00 50 1010.0
20260902223019 95 167 2.0 7.0 0.00 0.00 0.00 47 1010.0
20260902222505 96 134 1.0 5.0 0.00 0.00 0.00 47 1010.1
20260902222011 96 18 1.0 7.0 0.00 0.00 0.00 47 1010.0
20260902221530 96 9 2.0 9.0 0.00 0.00 0.00 47 1010.0
20260902221009 96 47 2.0 9.0 0.00 0.00 0.00 47 1010.0
20260902220517 96 137 1.0 11.0 0.00 0.00 0.00 48 1010.1
20260902220028 96 242 3.0 11.0 0.00 0.00 0.00 48 1010.0
20260902215514 96 167 2.0 8.0 0.00 0.00 0.00 48 1010.1
20260902215007 96 30 3.0 8.0 0.00 0.00 0.00 46 1010.1
20260902214512 96 217 2.0 8.0 0.00 0.00 0.00 46 1010.1
20260902214007 96 263 2.0 8.0 0.00 0.00 0.00 47 1010.1
20260902213509 96 258 1.0 6.0 0.00 0.00 0.00 47 1010.1
20260902213014 96 262 1.0 6.0 0.00 0.00 0.00 47 1010.1
20260902212511 96 136 1.0 9.0 0.00 0.00 0.00 49 1010.2
20260902212014 96 215 2.0 9.0 0.00 0.00 0.00 47 1010.1
20260902211512 96 316 2.0 12.0 0.00 0.00 0.00 47 1010.2
20260902211011 96 264 3.0 10.0 0.00 0.00 0.00 45 1010.2
20260902210511 96 301 2.0 12.0 0.00 0.00 0.00 47 1010.2
20260902210047 96 273 2.0 12.0 0.00 0.00 0.00 46 1010.4
20260902205507 96 227 3.0 12.0 0.00 0.00 0.00 47 1010.4
20260902205009 96 251 2.0 9.0 0.00 0.00 0.00 49 1010.4
20260902204533 96 83 2.0 9.0 0.00 0.00 0.00 47 1010.5
20260902204014 96 329 2.0 9.0 0.00 0.00 0.00 47 1010.5
20260902203506 96 223 2.0 12.0 0.00 0.00 0.00 49 1010.6
20260902203012 95 248 4.0 12.0 0.00 0.00 0.00 47 1010.7
20260902202511 95 269 4.0 12.0 0.00 0.00 0.00 47 1010.7
20260902202010 95 98 2.0 11.0 0.00 0.00 0.00 47 1010.7
20260902201524 95 304 3.0 11.0 0.00 0.00 0.00 47 1010.7
20260902201009 95 333 1.0 10.0 0.00 0.00 0.00 47 1010.8
20260902200513 96 336 2.0 11.0 0.00 0.00 0.00 46 1010.7
20260902200016 96 289 2.0 11.0 0.00 0.00 0.00 45 1010.7
20260902195508 95 246 1.0 7.0 0.00 0.00 0.00 48 1010.7
20260902195015 95 299 2.0 8.0 0.00 0.00 0.00 50 1010.8
20260902194534 95 282 2.0 8.0 0.00 0.00 0.00 49 1010.8
20260902194011 94 54 2.0 5.0 0.00 0.00 0.00 49 1010.9
20260902193514 93 39 1.0 8.0 0.00 0.00 0.00 51 1011.0
20260902193016 93 285 2.0 8.0 0.00 0.00 0.00 50 1011.1
20260902192508 94 173 1.0 6.0 0.00 0.00 0.00 52 1011.1
20260902192011 93 317 1.0 8.0 0.00 0.00 0.00 51 1011.2
20260902191517 93 128 3.0 8.0 0.00 0.00 0.00 48 1011.2
20260902191010 93 226 1.0 5.0 0.00 0.00 0.00 48 1011.1
20260902190517 93 79 1.0 4.0 0.00 0.00 0.00 50 1011.2
20260902190034 93 11 0.0 7.0 0.00 0.00 0.00 50 1011.3
20260902185517 93 346 1.0 7.0 0.00 0.00 0.00 51 1011.3
20260902185011 91 198 2.0 7.0 0.00 0.00 0.00 50 1011.5
20260902184531 91 218 1.0 6.0 0.00 0.00 0.00 51 1011.6
20260902184016 91 241 2.0 6.0 0.00 0.00 0.00 52 1011.7
20260902183515 91 80 1.0 5.0 0.00 0.00 0.00 52 1011.6
20260902183021 92 167 1.0 4.0 0.00 0.00 0.00 52 1011.6
20260902182517 92 284 1.0 5.0 0.00 0.00 0.00 52 1011.7
20260902182019 90 12 2.0 5.0 0.00 0.00 0.00 53 1011.8
20260902181516 90 160 1.0 6.0 0.00 0.00 0.00 55 1011.9
20260902181014 89 275 2.0 6.0 0.00 0.00 0.00 55 1012.0
20260902180513 89 226 1.0 6.0 0.00 0.00 0.00 55 1012.0
20260902180020 88 80 0.0 6.0 0.00 0.00 0.00 54 1012.1
20260902175516 88 259 1.0 6.0 0.00 0.00 0.00 53 1012.1
20260902175012 89 187 2.0 7.0 0.00 0.00 0.00 53 1012.2
20260902174525 90 47 1.0 7.0 0.00 0.00 0.00 54 1012.2
20260902174011 90 269 1.0 6.0 0.00 0.00 0.00 52 1012.3
20260902173516 90 288 1.0 7.0 0.00 0.00 0.00 53 1012.3
20260902173030 90 360 2.0 8.0 0.00 0.00 0.00 53 1012.4
20260902172519 89 227 3.0 8.0 0.00 0.00 0.00 52 1012.4
20260902172014 89 291 1.0 4.0 0.00 0.00 0.00 54 1012.4
20260902171529 89 120 1.0 6.0 0.00 0.00 0.00 54 1012.4
20260902171016 90 165 0.0 7.0 0.00 0.00 0.00 53 1012.4
20260902170512 89 214 2.0 7.0 0.00 0.00 0.00 55 1012.4
20260902170025 89 267 1.0 4.0 0.00 0.00 0.00 57 1012.5
20260902165512 88 327 0.0 3.0 0.00 0.00 0.00 57 1012.5
20260902165013 88 350 1.0 4.0 0.00 0.00 0.00 55 1012.4
20260902164524 88 296 1.0 4.0 0.00 0.00 0.00 55 1012.5
20260902164015 88 99 1.0 4.0 0.00 0.00 0.00 55 1012.5
20260902163516 85 217 1.0 4.0 0.00 0.00 0.00 58 1012.5
20260902163027 86 246 0.0 2.0 0.00 0.00 0.00 58 1012.5
20260902162513 86 248 0.0 4.0 0.00 0.00 0.00 57 1012.5
20260902162015 86 224 1.0 8.0 0.00 0.00 0.00 53 1012.5
20260902161529 87 349 2.0 8.0 0.00 0.00 0.00 52 1012.5
20260902161013 89 263 1.0 6.0 0.00 0.00 0.00 52 1012.5
20260902160516 89 293 2.0 5.0 0.00 0.00 0.00 54 1012.5
20260902160024 87 263 1.0 4.0 0.00 0.00 0.00 60 1012.5
20260902155520 85 296 1.0 2.0 0.00 0.00 0.00 63 1012.4
20260902155020 83 205 0.0 2.0 0.00 0.00 0.00 66 1012.5
20260902154522 82 57 0.0 2.0 0.00 0.00 0.00 64 1012.6
20260902154013 83 250 0.0 2.0 0.00 0.00 0.00 64 1012.5
20260902153514 82 232 0.0 5.0 0.00 0.00 0.00 63 1012.5
20260902153029 82 184 0.0 5.0 0.00 0.00 0.00 65 1012.6
20260902152515 82 213 0.0 5.0 0.00 0.00 0.00 63 1012.6
20260902152016 82 266 0.0 5.0 0.00 0.00 0.00 63 1012.5
20260902151526 83 253 0.0 4.0 0.00 0.00 0.00 65 1012.6
20260902151017 83 184 0.0 4.0 0.00 0.00 0.00 64 1012.5
20260902150512 82 213 1.0 3.0 0.00 0.00 0.00 66 1012.5
20260902150029 82 146 0.0 2.0 0.00 0.00 0.00 68 1012.5
20260902145516 81 121 0.0 2.0 0.00 0.00 0.00 67 1012.5
20260902145018 80 205 0.0 2.0 0.00 0.00 0.00 71 1012.4
20260902144537 80 165 1.0 2.0 0.00 0.00 0.00 69 1012.4
20260902144014 79 269 1.0 2.0 0.00 0.00 0.00 69 1012.5
20260902143517 78 40 0.0 2.0 0.00 0.00 0.00 72 1012.5
20260902143033 77 30 0.0 2.0 0.00 0.00 0.00 74 1012.4
20260902142513 77 332 0.0 2.0 0.00 0.00 0.00 70 1012.5
20260902142013 77 332 1.0 4.0 0.00 0.00 0.00 70 1012.6
20260902141508 78 113 1.0 4.0 0.00 0.00 0.00 68 1012.4
20260902141003 78 45 1.0 4.0 0.00 0.00 0.00 65 1012.3
20260902140504 79 242 0.0 2.0 0.00 0.00 0.00 65 1012.7
20260902140009 79 136 0.0 2.0 0.00 0.00 0.00 65 1012.8
20260902135509 80 97 0.0 2.0 0.00 0.00 0.00 68 1012.6
20260902135003 80 88 0.0 3.0 0.00 0.00 0.00 67 1012.7
20260902134518 79 87 0.0 3.0 0.00 0.00 0.00 68 1012.6
20260902134006 79 110 1.0 3.0 0.00 0.00 0.00 66 1012.8
20260902133509 79 134 0.0 2.0 0.00 0.00 0.00 65 1012.8
20260902133004 79 225 0.0 2.0 0.00 0.00 0.00 67 1013.0
20260902132504 78 123 0.0 3.0 0.00 0.00 0.00 68 1012.9
20260902132003 77 221 0.0 3.0 0.00 0.00 0.00 71 1012.9
20260902131505 76 216 1.0 2.0 0.00 0.00 0.00 74 1012.9
20260902131002 76 108 0.0 2.0 0.00 0.00 0.00 77 1012.9
20260902130502 74 107 0.0 2.0 0.00 0.00 0.00 78 1013.1
20260902130009 74 108 0.0 2.0 0.00 0.00 0.00 80 1013.2
20260902125501 74 107 0.0 2.0 0.00 0.00 0.00 80 1013.2
20260902125002 73 108 0.0 2.0 0.00 0.00 0.00 80 1013.1
20260902124514 73 108 0.0 1.0 0.00 0.00 0.00 80 1013.1
20260902124005 73 108 0.0 1.0 0.00 0.00 0.00 80 1013.0
20260902123502 73 107 0.0 2.0 0.00 0.00 0.00 79 1013.0
20260902123010 73 108 0.0 2.0 0.00 0.00 0.00 78 1013.0
20260902122503 73 108 0.0 0.0 0.00 0.00 0.00 77 1012.9
20260902122002 73 107 0.0 0.0 0.00 0.00 0.00 78 1012.9
20260902121503 72 108 0.0 0.0 0.00 0.00 0.00 78 1012.9
20260902121006 72 108 0.0 0.0 0.00 0.00 0.00 78 1012.7
20260902120503 72 108 0.0 2.0 0.00 0.00 0.00 78 1012.7
20260902120006 73 108 0.0 2.0 0.00 0.00 0.00 77 1012.8
20260902115505 73 108 0.0 3.0 0.00 0.00 0.00 76 1012.7
20260902115007 73 108 0.0 3.0 0.00 0.00 0.00 75 1012.5
20260902114504 73 96 1.0 3.0 0.00 0.00 0.00 75 1012.5
20260902114007 73 95 0.0 2.0 0.00 0.00 0.00 75 1012.4
20260902113507 74 95 0.0 2.0 0.00 0.00 0.00 73 1012.4
20260902113003 73 95 0.0 2.0 0.00 0.00 0.00 74 1012.4
20260902112505 73 89 0.0 2.0 0.00 0.00 0.00 74 1012.5
20260902112007 73 89 0.0 2.0 0.00 0.00 0.00 74 1012.5
20260902111522 73 89 1.0 2.0 0.00 0.00 0.00 75 1012.6
20260902111003 72 119 0.0 0.0 0.00 0.00 0.00 75 1012.6
20260902110504 72 119 0.0 1.0 0.00 0.00 0.00 76 1012.6
20260902110008 72 119 0.0 1.0 0.00 0.00 0.00 76 1012.6
20260902105506 72 119 0.0 0.0 0.00 0.00 0.00 75 1012.5
20260902105003 73 119 0.0 0.0 0.00 0.00 0.00 76 1012.5
20260902104516 73 119 0.0 0.0 0.00 0.00 0.00 77 1012.5
20260902104009 73 119 0.0 2.0 0.00 0.00 0.00 76 1012.4
20260902103508 73 119 0.0 2.0 0.00 0.00 0.00 74 1012.4
20260902103011 74 119 0.0 2.0 0.00 0.00 0.00 74 1012.4
20260902102504 74 119 0.0 2.0 0.00 0.00 0.00 73 1012.5
20260902102013 75 119 0.0 2.0 0.00 0.00 0.00 71 1012.5
20260902101520 75 119 1.0 2.0 0.00 0.00 0.00 71 1012.6
20260902101010 75 234 1.0 2.0 0.00 0.00 0.00 71 1012.8
20260902100511 74 352 0.0 2.0 0.00 0.00 0.00 72 1012.7
20260902100011 74 352 0.0 2.0 0.00 0.00 0.00 72 1012.9
20260902095503 74 360 0.0 2.0 0.00 0.00 0.00 73 1012.9
20260902095004 74 360 0.0 1.0 0.00 0.00 0.00 72 1012.9
20260902094503 74 360 0.0 4.0 0.00 0.00 0.00 72 1012.9
20260902094006 74 360 0.0 4.0 0.00 0.00 0.00 72 1013.0
20260902093506 75 219 0.0 2.0 0.00 0.00 0.00 70 1013.0
20260902093012 75 216 0.0 2.0 0.00 0.00 0.00 67 1012.9
20260902092511 76 216 0.0 2.0 0.00 0.00 0.00 67 1012.9
20260902092007 76 216 0.0 2.0 0.00 0.00 0.00 66 1012.9
20260902091517 77 216 0.0 2.0 0.00 0.00 0.00 65 1012.8
20260902091010 77 216 0.0 2.0 0.00 0.00 0.00 64 1012.8
20260902090504 77 216 0.0 2.0 0.00 0.00 0.00 65 1012.8
20260902090017 77 216 0.0 2.0 0.00 0.00 0.00 66 1012.9
20260902085509 78 227 1.0 4.0 0.00 0.00 0.00 64 1012.9
20260902085015 78 349 1.0 4.0 0.00 0.00 0.00 64 1013.0
20260902084508 79 352 3.0 4.0 0.00 0.00 0.00 62 1013.0
20260902084008 78 344 1.0 5.0 0.00 0.00 0.00 63 1012.8
20260902083506 77 254 1.0 5.0 0.00 0.00 0.00 65 1012.9
20260902083008 77 287 1.0 3.0 0.00 0.00 0.00 67 1013.0
20260902082507 77 336 1.0 5.0 0.00 0.00 0.00 66 1013.0
20260902082012 77 352 2.0 5.0 0.00 0.00 0.00 66 1013.2
20260902081515 77 339 0.0 2.0 0.00 0.00 0.00 67 1013.2
20260902081008 77 339 0.0 4.0 0.00 0.00 0.00 65 1012.9
20260902080510 77 339 1.0 6.0 0.00 0.00 0.00 65 1013.0
20260902080011 77 15 3.0 6.0 0.00 0.00 0.00 65 1013.0
20260902075514 77 352 2.0 3.0 0.00 0.00 0.00 64 1012.7
20260902075009 78 288 1.0 3.0 0.00 0.00 0.00 63 1012.2
20260902074510 77 134 0.0 2.0 0.00 0.00 0.00 63 1012.1
20260902074014 78 134 0.0 3.0 0.00 0.00 0.00 63 1012.1
20260902073505 78 110 0.0 4.0 0.00 0.00 0.00 62 1012.1
20260902073020 78 180 1.0 4.0 0.00 0.00 0.00 62 1012.1
20260902072505 78 196 0.0 3.0 0.00 0.00 0.00 62 1012.0
20260902072013 78 246 0.0 2.0 0.00 0.00 0.00 62 1012.0
20260902071547 78 71 0.0 5.0 0.00 0.00 0.00 61 1012.0
20260902071010 78 201 0.0 5.0 0.00 0.00 0.00 62 1012.0
20260902070507 78 159 0.0 2.0 0.00 0.00 0.00 62 1012.0
20260902070012 78 107 0.0 2.0 0.00 0.00 0.00 62 1012.0
20260902065514 78 215 0.0 3.0 0.00 0.00 0.00 63 1012.0
20260902065013 78 189 1.0 3.0 0.00 0.00 0.00 63 1012.1
20260902064524 78 140 0.0 2.0 0.00 0.00 0.00 63 1012.1
20260902064007 78 138 0.0 2.0 0.00 0.00 0.00 64 1012.1
20260902063517 78 138 0.0 2.0 0.00 0.00 0.00 64 1012.1
20260902063022 78 198 0.0 2.0 0.00 0.00 0.00 62 1012.1
20260902062519 79 194 0.0 2.0 0.00 0.00 0.00 62 1012.0
20260902062012 79 209 0.0 3.0 0.00 0.00 0.00 62 1011.8
20260902061538 79 151 0.0 3.0 0.00 0.00 0.00 61 1011.8
20260902061006 80 146 0.0 4.0 0.00 0.00 0.00 61 1011.8
20260902060510 80 105 0.0 4.0 0.00 0.00 0.00 60 1011.7
20260902060015 80 215 0.0 3.0 0.00 0.00 0.00 61 1011.6
20260902055514 80 229 1.0 2.0 0.00 0.00 0.00 60 1011.6
20260902055014 80 306 0.0 3.0 0.00 0.00 0.00 61 1011.6
20260902054521 80 211 0.0 3.0 0.00 0.00 0.00 60 1011.5
20260902054014 80 160 0.0 3.0 0.00 0.00 0.00 60 1011.7
20260902053511 81 166 1.0 5.0 0.00 0.00 0.00 60 1011.8
20260902053016 81 185 1.0 5.0 0.00 0.00 0.00 60 1011.8
20260902052520 81 55 0.0 3.0 0.00 0.00 0.00 60 1011.8
20260902052009 81 180 0.0 3.0 0.00 0.00 0.00 59 1011.8
20260902051534 82 175 0.0 3.0 0.00 0.00 0.00 58 1011.9
20260902051013 82 229 0.0 5.0 0.00 0.00 0.00 59 1011.9
20260902050514 82 277 0.0 5.0 0.00 0.00 0.00 59 1011.9
20260902050014 82 139 1.0 5.0 0.00 0.00 0.00 58 1011.8
20260902045509 82 186 1.0 6.0 0.00 0.00 0.00 58 1011.8
20260902045013 82 222 0.0 6.0 0.00 0.00 0.00 59 1011.8
20260902044520 82 203 1.0 5.0 0.00 0.00 0.00 59 1011.8
20260902044012 82 140 1.0 2.0 0.00 0.00 0.00 58 1011.9
20260902043511 82 219 0.0 4.0 0.00 0.00 0.00 59 1011.9
20260902043033 82 194 0.0 4.0 0.00 0.00 0.00 59 1011.9
20260902042521 82 225 0.0 3.0 0.00 0.00 0.00 59 1011.9
20260902042016 83 173 1.0 3.0 0.00 0.00 0.00 59 1011.8
20260902041524 83 211 1.0 6.0 0.00 0.00 0.00 59 1011.9
20260902041003 82 128 1.0 6.0 0.00 0.00 0.00 61 1011.9
20260902040503 82 113 0.0 5.0 0.00 0.00 0.00 61 1011.9
20260902040013 82 166 0.0 3.0 0.00 0.00 0.00 62 1012.0
20260902035503 82 177 0.0 2.0 0.00 0.00 0.00 63 1012.0
20260902035003 82 194 0.0 2.0 0.00 0.00 0.00 63 1011.9
20260902034520 81 329 0.0 2.0 0.00 0.00 0.00 64 1012.0
20260902034007 81 186 0.0 2.0 0.00 0.00 0.00 65 1011.9
20260902033503 81 186 0.0 2.0 0.00 0.00 0.00 65 1011.9
20260902033003 82 185 0.0 2.0 0.00 0.00 0.00 65 1011.9
20260902032506 82 161 0.0 2.0 0.00 0.00 0.00 65 1011.9
20260902032004 82 161 0.0 2.0 0.00 0.00 0.00 64 1011.9
20260902031507 82 221 0.0 2.0 0.00 0.00 0.00 64 1011.9
20260902031003 82 221 0.0 2.0 0.00 0.00 0.00 66 1011.9
20260902030503 82 224 0.0 2.0 0.00 0.00 0.00 64 1011.9
20260902030003 82 224 0.0 3.0 0.00 0.00 0.00 66 1011.8
20260902025510 82 224 0.0 3.0 0.00 0.00 0.00 64 1011.8
20260902025008 82 119 0.0 2.0 0.00 0.00 0.00 66 1011.8
20260902024505 83 119 0.0 2.0 0.00 0.00 0.00 65 1011.7
20260902024007 83 119 0.0 2.0 0.00 0.00 0.00 64 1011.7
20260902023507 83 127 0.0 2.0 0.00 0.00 0.00 63 1011.6
20260902023024 83 184 0.0 2.0 0.00 0.00 0.00 64 1011.6
20260902022505 83 179 0.0 2.0 0.00 0.00 0.00 66 1011.5
20260902022003 83 179 0.0 2.0 0.00 0.00 0.00 66 1011.4
20260902021510 83 193 0.0 2.0 0.00 0.00 0.00 65 1011.3
20260902021003 83 193 0.0 2.0 0.00 0.00 0.00 65 1011.2
20260902020504 84 193 0.0 2.0 0.00 0.00 0.00 65 1011.1
20260902020011 84 193 0.0 2.0 0.00 0.00 0.00 64 1011.0
20260902015507 84 159 0.0 1.0 0.00 0.00 0.00 63 1010.9
20260902015004 84 159 0.0 2.0 0.00 0.00 0.00 64 1010.9
20260902014511 84 159 0.0 2.0 0.00 0.00 0.00 64 1010.8
20260902014003 84 159 0.0 2.0 0.00 0.00 0.00 63 1010.7
20260902013511 84 56 0.0 2.0 0.00 0.00 0.00 64 1010.7
20260902013007 84 71 0.0 2.0 0.00 0.00 0.00 65 1010.6
20260902012503 84 83 0.0 2.0 0.00 0.00 0.00 65 1010.6
20260902012016 85 83 0.0 2.0 0.00 0.00 0.00 64 1010.5